Home > Time Zones > World Clock > Weather > France > Caen > Past weeks

Flag for France Weather past 2 weeks in Caen, France

Now
39 °F

Mostly cloudy.


Feels Like: 34 °F
Forecast: 40 / 51 °F
Wind: 7 mph from Northwest

Location: Caen Airport

Current Time: Jan 27, 2015 at 7:44:19 AM

Latest Report: Jan 27, 2015 at 7:00 AM


Visibility: N/A

Pressure: 30.39 "Hg

Humidity: 87%

Dew point: 36 °F

Location of CaenLocation

Historic Weather in Caen — Graph

°F

Caen temperature yesterday

Maximum temperature yesterday: 52 °F (at 2:00 PM)
Minimum temperature yesterday: 41 °F (at 11:00 PM)
Average temperature yesterday: 46 °F

Past Weeks' High & Low Weather Summary

 TemperatureHumidityPressure
High55 °F (Jan 12, 4:00 PM)100% (Jan 13, 9:30 AM)30.54 "Hg (Jan 13, 9:30 AM)
Low27 °F (Jan 22, 3:30 AM)53% (Jan 19, 3:30 PM)29.36 "Hg (Jan 15, 7:00 AM)
Average41 °F83%29.98 "Hg
* Reported Jan 12 6:00 AM — Jan 27 6:30 AM, Caen, Weather by CustomWeather, © 2014

Note: Actual official high and low records may vary slightly from our data, if they occured in-between our weather recording intervals... More about our weather records

Advertising

Caen weather history for previous 24 hours

 ConditionsComfort  
Time TempWeatherWind HumidityBarometerVisibility
6:30 AM
Jan 27
41 °FPassing clouds.8 mph87%30.39 "HgN/A
6:00 AM39 °FMostly cloudy.8 mph93%30.39 "HgN/A
5:30 AM39 °FOvercast.7 mph87%30.39 "HgN/A
5:00 AM39 °FPartly cloudy.6 mph87%30.39 "HgN/A
4:30 AM37 °FPassing clouds.7 mph93%30.39 "HgN/A
3:30 AM37 °FPassing clouds.7 mph87%30.39 "HgN/A
3:00 AM37 °FPassing clouds.6 mph93%30.39 "HgN/A
2:30 AM41 °FPassing clouds.6 mph81%30.39 "HgN/A
2:00 AM43 °FPassing clouds.8 mph81%30.39 "HgN/A
1:30 AM43 °FPassing clouds.7 mph81%30.39 "HgN/A
1:00 AM43 °FMostly cloudy.7 mph81%30.39 "HgN/A
12:30 AM43 °FMostly cloudy.7 mph81%30.39 "HgN/A
12:00 AM41 °FMostly cloudy.5 mph87%30.39 "HgN/A
11:30 PM
Jan 26
41 °FPassing clouds.6 mph81%30.39 "HgN/A
11:00 PM41 °FPassing clouds.7 mph87%30.36 "HgN/A
10:30 PM43 °FPassing clouds.7 mph81%30.36 "HgN/A
10:00 PM45 °FMostly cloudy.7 mph76%30.36 "HgN/A
9:30 PM45 °FMostly cloudy.10 mph76%30.36 "HgN/A
9:00 PM45 °FMostly cloudy.10 mph76%30.36 "HgN/A
8:30 PM45 °FMostly cloudy.12 mph81%30.33 "HgN/A
8:00 PM45 °FMostly cloudy.10 mph81%30.33 "HgN/A
7:30 PM45 °FOvercast.12 mph81%30.33 "HgN/A
7:00 PM45 °FMostly cloudy.13 mph81%30.33 "HgN/A
6:30 PM45 °FPassing clouds.15 mph81%30.30 "HgN/A
6:00 PM45 °FPartly cloudy.16 mph81%30.30 "HgN/A
5:30 PM46 °FScattered clouds.15 mph82%30.27 "HgN/A
5:00 PM48 °FBroken clouds.17 mph87%30.27 "HgN/A
4:30 PM48 °FMostly cloudy.17 mph87%30.27 "HgN/A
4:00 PM50 °FMostly cloudy.18 mph82%30.27 "HgN/A
3:30 PM50 °FMostly cloudy.18 mph88%30.27 "HgN/A
3:00 PM50 °FBroken clouds.14 mph94%30.24 "HgN/A
2:30 PM50 °FDrizzle. Fog.17 mph100%30.24 "Hg3 mi
2:00 PM52 °FLight rain. Fog.15 mph94%30.24 "Hg2 mi
1:30 PM50 °FLow clouds.14 mph100%30.24 "Hg6 mi
1:00 PM50 °FMostly cloudy.12 mph94%30.27 "Hg5 mi
12:30 PM50 °FDrizzle. Fog.13 mph94%30.27 "Hg3 mi
12:00 PM50 °FMostly cloudy.13 mph88%30.27 "HgN/A
11:30 AM48 °FLow clouds.13 mph94%30.30 "HgN/A
11:00 AM48 °FMostly cloudy.12 mph94%30.27 "HgN/A
10:30 AM46 °FBroken clouds.12 mph93%30.30 "HgN/A
10:00 AM46 °FFog.13 mph93%30.30 "Hg2 mi
9:30 AM46 °FLow clouds.14 mph93%30.30 "Hg5 mi
9:00 AM46 °FFog.13 mph93%30.27 "Hg3 mi
8:30 AM46 °FFog.14 mph93%30.30 "Hg2 mi
8:00 AM46 °FLow clouds.12 mph93%30.30 "HgN/A
7:30 AM46 °FMostly cloudy.13 mph87%30.30 "HgN/A
7:00 AM46 °FOvercast.13 mph87%30.30 "HgN/A
Weather by CustomWeather, © 2014

See weather overviewHow to use our weather pages